Flag for Germany Weather past 2 weeks in Meppen, Lower Saxony, Germany

Now
58 °F

Cool.


Feels Like: 58 °F
Forecast: 46 / 58 °F
Wind: 2 mph from Southwest

Location: Meppen

Current Time: Oct 25, 2014 at 6:02:27 PM

Latest Report: Oct 25, 2014 at 4:00 PM


Visibility: 6 mi

Pressure: 30.08 "Hg

Humidity: 82%

Dew point: 53 °F

Location of MeppenLocation

Historic Weather in Meppen — Graph

°F

Meppen temperature yesterday

Maximum temperature yesterday: 57 °F (at 3:00 PM)
Minimum temperature yesterday: 51 °F (at 7:00 AM)
Average temperature yesterday: 54 °F

Past Weeks' High & Low Weather Summary

 TemperatureHumidityPressure
High72 °F (Oct 19, 1:00 PM)96% (Oct 11, 1:00 AM)30.19 "Hg (Oct 11, 1:00 AM)
Low43 °F (Oct 11, 7:00 AM)58% (Oct 14, 2:00 PM)29.38 "Hg (Oct 21, 4:00 PM)
Average55 °F85%29.88 "Hg
* Reported Oct 10 4:00 PM — Oct 25 4:00 PM, Meppen, Weather by CustomWeather, © 2014

Note: Actual official high and low records may vary slightly from our data, if they occured in-between our weather recording intervals... More about our weather records

Advertising

Meppen weather history for previous 24 hours

 ConditionsComfort  
Time TempWeatherWind HumidityBarometerVisibility
4:00 PM
Oct 25
58 °FCool.2 mph82%30.08 "Hg6 mi
3:00 PM58 °FCool.3 mph82%30.07 "Hg6 mi
2:00 PM58 °FCool.3 mph84%30.07 "Hg6 mi
1:00 PM57 °FCool.3 mph85%30.06 "Hg6 mi
12:00 PM55 °FCool.3 mph95%30.06 "Hg3 mi
10:00 AM53 °FCool.3 mph95%30.03 "Hg1 mi
9:00 AM53 °FCool.3 mph94%30.02 "Hg1 mi
8:00 AM52 °FCool.3 mph94%30.00 "Hg1 mi
7:00 AM52 °FCool.5 mph94%29.99 "Hg2 mi
6:00 AM52 °FCool.5 mph94%29.99 "Hg1 mi
4:00 AM51 °FCool.3 mph93%29.98 "Hg3 mi
3:00 AM52 °FCool.3 mph90%30.00 "Hg4 mi
1:00 AM54 °FCool.3 mph78%30.01 "Hg9 mi
12:00 AM53 °FCool.5 mph82%30.02 "Hg8 mi
10:00 PM
Oct 24
54 °FCool.5 mph78%30.03 "Hg9 mi
9:00 PM54 °FCool.5 mph74%30.03 "Hg10 mi
8:00 PM54 °FCool.3 mph76%30.04 "Hg11 mi
7:00 PM54 °FCool.3 mph77%30.04 "Hg10 mi
6:00 PM55 °FCool.5 mph73%30.04 "Hg11 mi
Weather by CustomWeather, © 2014

See weather overviewHow to use our weather pages